Wetbulb
46.26 42.99 40.77 43.43 42.81 43.33 42.58 42.41 43.48 48.22 51.94 50.41 48.69 49.35 51.61 54.66 54.74 57.62 60.09 61.86 62.90 62.49 64.49 66.90 67.40 67.04 66.52 66.93 66.41 66.42 67.13 67.02 67.87 68.74 68.93 66.26 66.56 65.55 66.36 66.70 67.65 65.44 66.30 64.74
43.58 41.30 46.10 47.10 47.27 45.06 45.43 42.31 41.11 48.35 52.17 50.51 48.59 48.47 51.10 55.10 56.70 57.84 59.57 60.53 61.57 61.24 62.60 64.88 65.67 65.92 65.14 64.65 64.99 65.44 66.11 67.13 67.22 66.77 66.79 67.72 67.19 66.31 64.73 65.82 63.12 66.82 64.75 64.82
42.11 44.86 49.71 48.87 46.52 45.59 43.06 41.82 42.05 42.84 49.72 50.52 47.83 45.40 48.97 53.92 57.95 59.99 59.40 60.29 62.28 61.47 59.14 61.38 62.13 62.93 62.76 62.74 63.33 63.69 64.71 65.50 66.17 66.23 65.17 65.73 67.06 66.94 65.95 65.29 65.21 64.52 65.28 64.66
42.83 47.26 48.87 47.26 46.77 45.28 40.67 45.85 46.11 47.63 41.44 38.38 45.23 36.87 45.01 50.84 55.08 58.26 60.11 60.38 61.05 61.10 59.27 59.57 60.13 61.07 61.85 62.08 62.80 63.01 63.01 63.69 65.19 65.48 65.29 63.08 63.37 64.10 65.40 65.00 64.75 64.14 65.38 65.31
44.54 46.00 46.46 45.57 45.91 46.77 44.24 48.07 47.22 45.59 41.16 42.82 44.59 40.42 41.38 50.33 51.81 54.32 57.38 59.22 59.67 60.28 59.12 59.01 59.23 60.14 61.49 62.03 61.10 60.80 60.86 61.12 62.66 63.49 63.52 62.97 61.13 62.58 64.35 64.51 64.22 65.75 65.57 65.13
45.58 48.86 47.10 46.87 48.85 48.72 49.00 47.04 44.61 43.63 40.79 37.27 41.55 40.73 41.04 45.85 51.65 53.22 57.82 57.17 58.31 58.39 58.97 58.52 58.33 58.60 58.48 59.37 59.55 59.36 58.99 59.70 60.57 61.14 62.38 61.64 60.72 60.16 60.00 60.79 60.40 60.29 60.69 61.50
47.69 47.84 47.62 50.19 45.93 47.43 46.44 41.56 35.63 35.45 35.13 35.11 43.29 42.91 42.59 50.34 53.48 55.11 55.97 56.25 56.73 55.70 55.88 56.25 55.81 55.84 56.93 57.20 57.84 58.58 57.48 57.27 58.37 57.68 58.57 60.57 60.37 60.96 59.88 59.04 59.69 58.40 58.02 58.54
41.38 40.50 47.58 50.49 45.32 42.35 43.87 41.15 37.21 32.31 31.91 34.66 44.46 39.88 43.98 53.01 53.85 53.49 55.38 55.21 55.73 53.46 53.60 55.16 55.85 56.08 55.86 55.99 55.69 56.51 56.35 56.30 57.10 56.50 55.40 55.79 57.56 59.48 59.92 59.72 58.88 57.84 57.13 57.23
42.30 44.17 51.27 50.89 48.18 46.66 43.63 40.92 42.30 37.65 36.76 36.83 38.91 43.52 48.75 51.70 51.43 51.01 51.90 53.61 51.72 50.79 51.38 52.00 52.87 53.33 54.26 54.55 54.59 54.18 54.66 55.44 56.08 56.72 55.34 54.33 54.89 56.80 56.94 58.67 59.12 58.16 58.10 58.25
45.75 41.59 49.06 50.14 49.96 49.81 46.47 46.12 39.68 37.93 31.47 29.87 35.66 40.00 40.52 47.16 49.91 51.09 50.95 48.93 49.29 50.52 51.02 51.82 52.45 52.94 54.24 53.54 52.95 54.09 54.59 53.86 54.35 55.22 54.84 54.31 53.67 55.81 55.61 56.99 57.55 57.73 58.67 58.10
42.55 41.45 44.22 46.88 45.04 42.54 43.12 40.86 40.05 38.62 36.69 31.94 30.54 37.95 46.99 49.10 48.83 46.68 46.41 47.36 48.26 48.98 50.06 51.36 51.87 53.17 53.45 51.56 51.51 51.74 52.77 52.09 52.21 53.98 54.13 52.83 53.57 54.84 55.28 55.42 56.35 57.45 57.45 57.73
43.78 40.62 37.85 42.46 47.02 48.04 44.55 41.75 39.05 35.27 33.96 34.77 35.73 38.08 48.09 47.66 47.51 47.67 46.86 47.70 47.68 47.81 49.51 52.22 52.70 51.12 50.33 50.09 49.60 49.95 50.66 51.33 52.52 53.31 53.14 52.85 53.18 53.96 54.38 55.08 55.68 56.53 56.33 56.49
44.15 38.32 33.04 39.86 43.01 45.96 43.35 43.61 42.28 38.44 36.32 33.75 35.47 38.41 48.66 48.84 47.79 47.77 46.94 47.56 47.70 47.57 49.37 50.08 49.74 47.61 48.10 48.34 48.83 49.84 50.97 52.14 52.87 52.86 53.16 53.40 53.94 54.86 54.70 54.94 55.53 55.85 53.57 50.24
48.88 39.89 36.63 35.57 39.17 42.51 42.05 43.77 42.62 38.76 34.28 37.75 38.91 39.43 43.55 45.35 45.21 45.69 45.57 45.92 46.23 46.32 46.56 46.27 46.79 46.84 47.21 47.67 48.06 50.45 51.70 52.70 52.35 52.80 52.97 52.85 52.97 53.44 53.95 54.91 53.90 50.02 48.26 46.72
45.54 39.87 41.24 42.48 45.04 45.44 44.45 44.19 44.35 41.30 38.86 38.47 39.89 39.88 42.07 44.46 43.64 43.98 44.62 45.59 45.73 45.75 46.31 46.73 46.33 46.28 45.85 46.92 49.33 51.73 52.22 52.63 52.66 52.63 52.04 51.79 51.99 53.56 54.33 53.54 49.40 48.57 48.11 47.26
44.07 39.18 40.76 40.12 45.46 45.37 43.27 45.18 45.00 44.24 44.01 42.62 41.89 39.11 42.98 46.74 45.60 43.63 43.21 44.16 44.68 44.93 46.47 47.68 48.02 48.16 46.78 48.46 50.86 51.89 52.40 52.64 52.08 51.65 50.93 51.81 51.90 52.80 50.85 49.37 47.66 45.95 45.25 44.54
42.52 39.87 38.56 36.07 42.60 42.63 38.42 42.41 43.54 42.81 43.34 42.66 37.24 38.74 42.31 42.65 43.67 42.61 42.97 43.93 44.70 45.82 46.74 47.03 47.13 47.09 47.23 50.57 51.91 50.86 52.23 52.19 51.44 50.60 50.54 51.56 51.80 51.40 50.44 48.88 46.65 44.52 43.14 42.69
41.86 39.95 38.88 36.54 38.59 32.94 40.54 47.33 47.12 43.47 43.29 42.39 41.78 42.05 42.79 42.53 43.67 44.51 44.06 43.17 45.20 46.06 46.92 46.92 46.84 47.24 50.72 51.06 51.09 52.20 52.73 51.73 50.18 49.06 49.10 50.80 51.30 50.50 50.86 48.30 45.27 43.05 42.52 41.69
44.55 40.86 37.00 35.62 34.80 39.39 44.09 45.75 44.50 42.00 39.83 42.98 41.33 43.07 44.00 44.46 43.46 43.16 45.68 45.86 45.06 46.04 47.35 48.26 49.90 50.47 50.48 50.32 51.34 52.86 52.28 49.97 48.40 47.70 49.21 49.14 47.74 47.28 47.15 48.09 45.03 43.67 42.05 41.52
45.49 43.00 40.20 36.99 34.83 32.84 41.26 48.20 49.43 46.80 37.72 43.97 42.98 41.72 41.74 41.65 36.20 39.28 44.72 45.82 46.56 47.87 48.42 49.15 50.73 52.60 51.66 52.58 51.68 52.37 49.85 48.09 46.67 47.29 46.95 46.40 45.81 44.19 44.25 46.09 46.04 45.42 43.56 41.11
40.25 40.01 38.40 36.40 35.76 40.22 45.85 47.87 48.75 37.50 37.67 42.84 43.21 41.83 41.64 39.91 41.29 43.47 44.80 46.65 47.47 48.07 49.92 50.44 50.12 49.11 49.53 50.47 50.64 50.28 48.58 46.29 47.65 46.58 45.00 43.40 41.55 41.04 41.86 44.70 44.14 41.07 40.45 40.15
39.84 37.27 37.94 37.02 34.18 34.13 45.87 45.38 39.95 42.10 42.41 42.72 43.08 43.02 42.32 42.58 43.31 43.64 45.79 46.43 47.43 47.28 48.03 48.61 46.90 47.33 49.03 49.03 50.61 49.87 46.96 47.21 47.45 45.07 41.89 40.02 39.05 39.45 40.80 41.08 41.82 44.25 41.29 37.97
40.57 42.81 39.59 39.03 38.35 43.22 43.72 42.72 43.24 43.11 42.80 42.90 41.89 43.55 44.05 43.53 44.17 45.38 45.21 45.82 46.12 47.38 47.08 47.48 46.44 46.61 48.41 50.29 51.37 49.58 48.12 47.37 45.30 41.09 40.59 41.37 41.10 40.13 40.21 38.87 36.99 36.16 35.32 33.99
44.38 45.25 39.80 39.82 40.68 41.73 43.87 44.68 45.33 44.92 43.81 44.89 44.82 45.14 45.52 44.12 44.92 44.96 45.56 45.25 45.44 47.75 47.83 46.84 46.25 46.13 49.48 50.54 52.32 50.42 48.69 46.85 41.93 39.24 38.70 41.02 40.31 39.55 38.38 37.29 36.29 34.33 33.30 33.33
43.91 44.33 40.44 39.37 41.11 43.02 44.52 44.48 44.47 45.85 46.69 46.86 47.07 46.61 45.65 44.92 44.24 44.56 44.80 45.28 46.85 47.49 47.44 48.07 47.53 47.37 46.55 50.11 52.26 49.50 47.78 45.03 41.32 39.55 41.36 40.71 40.54 40.27 39.11 36.53 34.67 35.81 37.51 37.47
43.54 42.74 40.86 39.24 42.73 41.91 42.22 43.99 46.59 45.98 45.97 46.65 45.82 44.87 45.44 44.90 43.89 45.07 45.07 46.29 46.62 46.67 47.51 47.94 47.46 47.00 46.42 50.45 51.45 49.33 47.73 45.34 42.58 42.50 42.02 41.47 41.04 40.46 38.94 38.01 37.57 39.92 39.48 39.27
MSLP
1007.27 1007.90 1007.84 1007.71 1008.04 1007.81 1007.75 1007.72 1008.43 1009.15 1009.52 1010.36 1011.87 1012.28 1012.35 1011.82 1011.79 1011.40 1011.35 1011.22 1011.96 1012.40 1012.67 1011.94 1011.19 1010.49 1010.27 1010.18 1009.69 1009.50 1009.30 1009.15 1008.91 1008.99 1009.11 1008.89 1009.94 1010.06 1010.96 1010.24 1011.10 1010.70 1009.73 1008.31
1007.81 1007.54 1006.51 1006.86 1006.63 1007.10 1006.92 1007.50 1008.49 1009.13 1009.48 1010.69 1012.20 1012.85 1013.00 1012.37 1012.49 1012.33 1011.45 1011.99 1012.82 1012.81 1012.19 1012.04 1011.09 1010.86 1010.90 1011.55 1011.41 1010.61 1010.66 1010.20 1010.67 1010.60 1010.24 1009.72 1009.64 1006.60 1009.05 1009.22 1008.02 1008.84 1008.18 1008.91
1007.53 1006.48 1005.94 1006.14 1006.30 1006.39 1006.73 1006.87 1007.80 1008.88 1009.92 1011.30 1012.20 1013.52 1013.71 1013.33 1012.55 1011.89 1011.39 1011.52 1013.76 1014.80 1013.91 1012.21 1012.03 1011.89 1011.66 1011.86 1011.99 1011.78 1011.21 1011.14 1011.03 1011.18 1011.40 1010.76 1010.11 1009.69 1009.99 1009.15 1009.41 1009.32 1008.81 1008.23
1006.92 1006.04 1005.73 1005.59 1005.75 1006.16 1006.47 1006.75 1007.23 1008.91 1010.30 1011.36 1011.75 1014.13 1014.59 1014.47 1013.85 1013.11 1012.80 1013.68 1015.28 1015.73 1014.72 1013.16 1013.26 1013.04 1012.50 1012.56 1012.68 1012.41 1012.18 1011.69 1011.33 1011.20 1011.07 1011.14 1010.96 1010.46 1009.63 1009.16 1009.11 1009.07 1009.21 1008.83
1006.64 1005.82 1005.54 1005.31 1005.51 1005.90 1006.41 1006.72 1007.74 1008.69 1010.32 1011.53 1012.57 1013.55 1015.43 1015.14 1015.26 1014.84 1014.43 1014.67 1015.82 1016.07 1014.85 1013.81 1013.65 1013.45 1013.05 1012.99 1012.90 1012.56 1012.27 1011.98 1011.53 1011.15 1011.02 1010.98 1010.78 1010.60 1010.06 1009.68 1009.44 1009.14 1008.93 1008.84
1006.74 1005.78 1005.35 1005.14 1005.42 1005.94 1006.40 1007.33 1008.56 1010.07 1011.43 1012.82 1013.56 1014.01 1015.20 1015.35 1015.29 1015.32 1015.28 1015.37 1015.84 1015.72 1014.61 1014.62 1014.21 1013.74 1013.26 1013.16 1013.22 1013.05 1012.74 1012.43 1011.82 1011.26 1010.93 1010.79 1010.90 1011.04 1010.68 1010.26 1010.03 1009.76 1009.06 1008.47
1007.28 1006.40 1005.59 1005.23 1005.73 1006.35 1007.19 1008.64 1010.45 1011.77 1013.07 1014.11 1014.03 1014.40 1015.21 1015.00 1014.98 1015.20 1015.24 1015.28 1015.62 1015.42 1015.32 1015.16 1014.74 1014.03 1013.59 1013.86 1013.63 1013.31 1013.12 1012.72 1012.19 1011.70 1011.22 1010.83 1010.68 1010.52 1010.42 1010.21 1009.74 1009.27 1008.88 1008.21
1008.65 1007.62 1006.81 1006.15 1006.49 1007.31 1008.35 1009.52 1011.22 1012.92 1014.24 1014.58 1014.30 1015.11 1015.19 1015.10 1015.06 1014.76 1015.10 1015.49 1015.79 1016.06 1015.92 1015.44 1015.16 1014.62 1014.65 1014.50 1014.05 1013.73 1013.47 1012.96 1012.32 1011.76 1011.42 1010.86 1010.49 1010.24 1009.92 1009.53 1009.13 1008.85 1008.53 1007.99
1009.20 1008.68 1007.63 1007.03 1006.91 1007.55 1008.81 1010.20 1011.31 1013.04 1014.65 1015.24 1015.76 1015.67 1015.24 1015.32 1015.37 1015.44 1015.78 1015.98 1016.46 1016.50 1016.29 1015.91 1015.60 1015.33 1015.09 1014.85 1014.38 1014.06 1013.57 1013.00 1012.49 1012.21 1011.77 1011.22 1010.81 1010.18 1009.58 1008.97 1008.59 1008.36 1007.72 1007.54
1010.08 1009.79 1008.94 1008.13 1007.76 1008.05 1008.78 1010.34 1011.78 1013.54 1015.57 1016.53 1016.54 1016.46 1016.47 1016.04 1016.08 1016.27 1016.39 1016.84 1016.99 1016.77 1016.58 1016.44 1016.10 1015.87 1015.47 1014.81 1014.38 1013.91 1013.57 1013.27 1012.76 1012.32 1011.83 1011.39 1011.01 1010.38 1009.72 1009.04 1008.60 1008.15 1007.53 1007.21
1010.77 1010.94 1010.50 1009.46 1009.82 1010.01 1010.09 1011.10 1012.88 1014.55 1015.94 1016.98 1017.52 1017.69 1017.06 1016.73 1016.70 1017.12 1017.36 1017.50 1017.40 1017.35 1017.03 1016.68 1016.28 1015.85 1015.56 1015.12 1014.61 1014.34 1013.91 1013.56 1013.11 1012.65 1012.10 1011.64 1011.06 1010.39 1009.85 1009.40 1008.83 1008.15 1007.70 1007.22
1012.06 1012.62 1012.49 1011.70 1010.76 1010.83 1010.83 1011.91 1013.26 1015.11 1016.55 1017.38 1017.91 1018.45 1017.84 1017.72 1017.75 1017.99 1018.09 1018.03 1017.81 1017.51 1017.19 1016.82 1016.50 1016.19 1015.77 1015.37 1014.89 1014.57 1014.32 1013.98 1013.50 1012.87 1012.37 1011.83 1011.21 1010.60 1009.93 1009.20 1008.51 1008.06 1007.58 1007.11
1012.69 1014.08 1013.94 1012.92 1012.32 1011.81 1012.02 1012.57 1013.32 1014.92 1016.06 1017.97 1018.62 1018.99 1018.48 1018.67 1018.69 1018.79 1018.60 1018.30 1018.05 1017.62 1017.23 1016.86 1016.56 1016.19 1015.65 1015.54 1015.26 1015.07 1014.50 1014.11 1013.59 1013.01 1012.55 1011.98 1011.37 1010.73 1010.05 1009.37 1008.66 1007.92 1007.89 1008.20
1013.05 1014.90 1015.12 1014.80 1014.47 1014.03 1013.87 1013.82 1014.06 1015.05 1016.77 1018.20 1018.93 1019.26 1019.39 1019.41 1019.35 1019.23 1019.08 1018.76 1018.37 1017.85 1017.35 1016.95 1016.63 1016.23 1015.89 1015.92 1015.65 1015.17 1014.65 1014.27 1013.92 1013.43 1012.94 1012.33 1011.70 1010.85 1009.99 1009.44 1009.14 1009.09 1009.16 1009.30
1014.16 1015.81 1015.76 1015.39 1015.03 1014.87 1015.18 1015.44 1015.39 1016.11 1017.08 1018.08 1019.29 1019.63 1019.80 1019.76 1019.69 1019.51 1019.25 1018.82 1018.44 1017.97 1017.54 1017.13 1016.76 1016.29 1016.14 1015.70 1015.37 1015.18 1014.95 1014.69 1014.25 1013.87 1013.32 1012.95 1012.19 1010.85 1009.98 1010.11 1010.52 1010.56 1010.42 1010.63
1015.35 1016.37 1016.38 1016.37 1015.89 1015.74 1016.24 1016.67 1016.89 1017.56 1018.31 1019.09 1019.53 1020.00 1020.04 1019.77 1019.67 1019.66 1019.48 1019.16 1018.79 1018.38 1017.82 1017.31 1016.79 1016.36 1016.06 1016.17 1015.85 1015.59 1015.45 1015.17 1014.81 1014.48 1014.08 1013.60 1012.90 1011.95 1011.72 1011.63 1011.79 1012.22 1012.28 1012.16
1016.28 1017.11 1017.53 1017.38 1016.96 1016.62 1017.17 1017.87 1018.06 1018.73 1019.07 1019.50 1020.17 1020.49 1020.41 1020.30 1020.11 1019.88 1019.73 1019.41 1019.07 1018.67 1018.19 1017.71 1017.26 1016.93 1016.62 1016.53 1016.44 1016.32 1016.12 1015.78 1015.38 1015.14 1014.89 1014.18 1013.73 1013.15 1012.85 1012.87 1012.78 1013.07 1013.32 1013.64
1016.69 1017.70 1018.26 1018.46 1017.58 1017.96 1018.39 1018.03 1018.36 1019.10 1019.73 1019.93 1020.28 1020.49 1020.50 1020.33 1020.01 1019.75 1019.66 1019.58 1019.42 1019.09 1018.65 1018.26 1017.79 1017.41 1017.08 1016.82 1016.60 1016.53 1016.56 1016.46 1016.14 1015.57 1015.29 1014.86 1014.43 1014.04 1013.51 1013.50 1014.00 1014.14 1014.26 1014.26
1016.45 1017.97 1019.17 1019.33 1019.38 1019.24 1018.80 1018.67 1018.62 1018.84 1019.99 1020.22 1020.44 1020.48 1020.46 1020.38 1020.26 1020.07 1019.72 1019.71 1019.54 1019.36 1018.92 1018.42 1018.08 1017.72 1017.48 1017.29 1017.10 1016.97 1016.73 1016.78 1016.73 1016.31 1015.88 1015.65 1015.34 1015.05 1014.68 1014.54 1014.90 1015.27 1015.12 1015.18
1017.29 1018.06 1019.09 1019.93 1020.02 1019.73 1019.14 1018.57 1018.52 1018.79 1019.98 1020.34 1020.49 1020.65 1020.73 1020.77 1020.99 1020.74 1020.11 1019.89 1019.59 1019.29 1018.89 1018.55 1018.20 1017.88 1017.69 1017.40 1017.13 1017.22 1017.43 1017.46 1017.39 1017.18 1016.76 1016.63 1016.35 1016.13 1015.76 1015.56 1015.69 1015.89 1015.93 1016.07
1018.09 1019.21 1020.03 1020.55 1020.52 1020.11 1019.61 1019.13 1018.79 1019.78 1021.14 1020.62 1020.75 1020.91 1021.12 1021.46 1021.31 1020.80 1020.64 1020.37 1020.06 1019.70 1019.33 1018.90 1018.56 1018.36 1018.04 1017.63 1017.43 1017.77 1018.01 1018.05 1018.17 1017.93 1017.44 1017.46 1017.28 1017.02 1016.87 1016.66 1016.70 1016.73 1016.79 1016.84
1018.58 1019.69 1020.62 1021.14 1021.23 1020.99 1020.14 1019.74 1020.21 1021.22 1021.08 1021.15 1021.23 1021.41 1021.58 1021.70 1021.48 1021.28 1021.11 1020.80 1020.29 1019.87 1019.39 1019.17 1019.04 1018.65 1018.04 1017.73 1017.62 1017.94 1018.19 1018.44 1018.66 1018.44 1018.33 1018.32 1018.26 1018.05 1017.83 1017.61 1017.41 1017.27 1017.40 1017.55
1018.91 1019.34 1020.24 1021.50 1021.49 1021.32 1021.15 1021.04 1021.22 1021.39 1021.59 1021.74 1021.81 1021.99 1022.03 1022.13 1022.09 1021.88 1021.45 1020.93 1020.43 1020.13 1019.89 1019.53 1019.29 1018.82 1018.18 1017.86 1017.66 1018.08 1018.50 1018.85 1019.07 1018.90 1019.16 1019.06 1018.96 1018.79 1018.67 1018.52 1018.48 1018.43 1018.38 1018.33
1018.99 1019.32 1020.49 1021.54 1021.89 1021.65 1021.56 1021.62 1021.71 1021.88 1022.13 1022.32 1022.47 1022.61 1022.57 1022.65 1022.43 1022.12 1021.69 1021.26 1020.75 1020.23 1019.93 1019.66 1019.30 1018.87 1018.46 1018.02 1017.77 1018.24 1018.80 1019.14 1019.35 1019.57 1019.76 1019.81 1019.64 1019.60 1019.57 1019.43 1019.44 1019.38 1019.19 1019.03
1019.63 1019.77 1021.04 1022.02 1022.08 1022.06 1022.01 1022.09 1022.37 1022.57 1022.70 1022.80 1022.92 1023.04 1023.02 1022.94 1022.76 1022.39 1021.88 1021.33 1020.74 1020.19 1019.92 1019.57 1019.38 1019.03 1018.84 1018.42 1018.43 1018.83 1019.10 1019.43 1019.73 1020.11 1020.27 1020.30 1020.20 1020.27 1020.34 1020.43 1020.32 1020.00 1019.77 1019.54
1020.15 1020.48 1021.07 1021.35 1021.62 1022.19 1022.52 1022.64 1022.79 1022.94 1023.25 1023.39 1023.41 1023.40 1023.37 1023.21 1022.92 1022.44 1021.93 1021.39 1020.82 1020.33 1020.02 1019.65 1019.39 1019.13 1018.81 1018.37 1018.82 1019.20 1019.38 1019.67 1020.04 1020.40 1020.63 1020.69 1020.64 1020.66 1020.72 1020.73 1020.53 1020.22 1020.01 1019.71
Wind_Speed
6 5 4 7 6 4 3 1 6 3 3 9 4 4 8 8 8 13 17 20 16 13 8 12 13 17 20 22 22 20 20 16 14 12 11 3 6 9 9 8 18 11 4 11
7 4 7 1 4 5 5 5 4 2 2 9 3 11 6 12 3 3 16 15 13 12 13 14 17 18 19 17 17 17 16 15 11 8 8 5 1 5 11 11 11 15 13 10
6 6 2 2 1 4 2 3 6 6 0 6 6 7 7 5 8 11 10 16 13 10 7 15 18 16 16 17 16 14 14 12 11 8 3 4 3 0 2 3 7 7 9 9
4 5 2 2 3 4 4 1 3 10 5 3 1 3 6 7 11 12 15 15 10 10 6 11 9 9 9 9 8 8 8 10 10 10 8 7 2 2 1 2 2 4 4 6
7 3 2 5 3 3 8 4 5 3 5 6 9 7 1 4 6 3 3 8 4 7 4 9 7 5 4 4 5 6 6 7 7 7 7 5 5 3 5 4 4 2 2 3
6 6 2 1 3 4 3 5 7 5 4 5 5 5 3 2 4 2 2 7 5 6 5 3 3 3 4 6 7 7 8 7 8 7 7 7 5 0 2 3 3 3 3 4
7 5 5 1 5 8 11 8 5 7 7 3 2 6 3 2 3 4 4 5 3 2 1 1 3 6 10 9 8 7 8 7 7 6 7 6 6 5 4 4 4 4 3 3
3 7 7 7 2 3 4 4 6 2 1 3 5 4 2 2 5 6 6 5 2 3 4 3 4 7 8 8 7 8 8 8 9 8 9 7 7 4 4 4 4 4 3 4
3 3 6 6 2 4 2 6 2 7 4 4 1 2 3 4 7 6 5 3 2 0 3 7 7 6 6 7 8 7 8 8 8 9 8 9 8 9 8 8 5 4 6 3
1 1 2 5 5 9 7 3 6 5 3 1 4 3 3 2 5 4 2 4 2 5 6 4 5 7 7 6 7 8 8 8 7 8 7 7 8 7 7 7 6 6 7 5
2 4 7 4 5 1 7 4 7 6 4 5 1 3 5 3 5 6 6 6 6 6 5 5 5 4 5 7 7 8 8 8 8 8 7 8 8 8 8 7 9 6 6 7
4 5 1 2 3 4 1 3 4 6 2 3 5 3 5 7 7 6 6 5 4 3 3 3 4 6 7 7 7 7 7 7 7 7 7 8 7 7 8 10 10 10 8 4
1 4 4 8 8 6 5 3 4 5 4 1 6 4 6 6 8 6 6 6 5 6 6 6 6 6 7 8 7 7 6 7 8 9 10 11 13 12 12 11 11 10 8 9
8 4 6 6 5 3 6 8 5 6 4 3 2 4 5 7 7 7 7 6 6 6 6 6 8 8 7 6 5 5 6 6 7 9 10 13 14 14 13 10 10 11 10 10
6 4 2 2 4 3 8 12 12 7 2 5 3 4 4 2 3 5 6 8 8 8 9 8 8 8 6 5 5 7 7 7 7 9 11 13 15 14 11 10 12 11 12 12
4 1 2 3 9 9 8 9 8 10 10 9 8 6 4 1 4 4 6 7 8 8 9 10 11 10 8 7 6 7 8 9 7 10 12 13 14 16 16 14 15 15 14 13
4 3 4 2 2 3 7 5 7 4 6 4 3 2 3 3 6 5 7 7 7 9 9 10 9 8 6 5 7 7 7 6 9 10 12 12 11 13 12 12 13 13 13 12
5 4 2 2 4 4 3 3 7 10 3 5 5 2 3 4 5 7 5 5 8 8 9 9 8 6 5 4 6 5 6 8 9 11 12 12 10 10 9 12 11 11 9 10
6 5 4 4 3 2 2 3 1 1 2 0 3 2 4 6 4 5 4 4 4 6 6 3 3 3 6 7 6 4 6 8 10 11 10 11 11 11 11 9 10 8 8 9
6 7 6 3 2 5 1 4 3 4 1 1 1 3 4 4 4 6 6 7 7 6 4 7 7 5 7 8 5 5 9 8 9 9 9 10 10 10 9 7 8 7 7 8
4 4 3 2 0 3 4 6 5 1 5 3 3 3 4 2 6 6 7 6 5 5 7 7 7 6 6 7 6 6 6 6 4 5 9 10 10 9 9 7 7 5 5 6
4 5 1 2 1 2 6 3 3 4 1 1 3 5 5 5 8 6 6 7 7 7 7 8 7 7 7 7 4 5 5 3 4 7 9 9 9 8 7 8 7 5 7 7
3 5 6 3 5 3 4 4 2 2 1 4 4 4 4 4 6 7 7 8 7 6 6 6 7 8 8 6 3 4 4 5 4 8 7 8 8 9 8 9 8 6 6 5
3 3 5 3 2 2 4 2 4 5 5 5 4 4 5 6 7 8 7 7 6 5 7 6 8 8 8 9 5 6 6 4 5 7 6 6 9 10 9 7 6 5 4 4
2 4 5 3 1 2 3 3 4 6 5 6 6 5 7 6 8 7 7 9 9 7 9 6 6 8 7 7 7 6 5 5 6 6 5 4 4 7 8 6 4 3 3 3
1 5 4 5 6 5 2 4 4 7 5 6 6 7 7 5 7 7 9 10 10 9 9 6 7 7 8 6 8 5 4 4 6 5 3 3 3 3 4 3 4 5 5 6
Wind_Direction
339 29 270 253 189 214 232 341 69 3 217 72 60 47 4 345 24 45 51 56 37 29 22 38 47 41 36 34 33 24 34 24 27 11 358 354 95 57 20 33 347 344 174 37
8 261 251 171 260 219 135 104 103 343 61 86 169 51 0 20 20 337 72 51 27 6 28 31 39 40 39 37 37 23 28 20 33 26 18 22 169 137 201 238 229 266 284 247
174 254 67 164 33 71 295 145 153 165 234 92 122 40 18 334 11 39 46 68 23 348 345 49 40 39 43 38 33 32 16 23 24 22 13 346 340 8 236 224 226 237 262 233
220 271 159 79 62 118 311 344 18 147 118 138 322 156 24 16 37 36 63 64 308 311 332 68 61 48 47 43 38 37 31 12 15 21 34 38 33 47 5 348 312 278 258 273
262 1 294 40 294 184 233 70 57 358 94 99 346 76 301 32 53 5 123 121 215 262 7 51 43 35 55 55 45 31 32 34 2 17 42 47 32 354 347 345 329 305 286 260
254 287 238 191 40 42 312 84 38 61 81 53 318 104 296 223 181 241 230 110 197 236 68 23 20 321 52 40 28 19 15 9 359 4 7 24 38 74 307 302 294 294 289 286
338 327 304 89 30 7 48 56 357 4 19 224 270 56 249 346 239 243 189 156 195 70 83 243 8 14 37 21 5 6 7 359 350 357 358 352 353 332 311 262 264 294 289 291
36 7 355 330 95 149 39 105 144 214 286 257 3 87 257 165 316 121 119 129 130 228 240 36 0 36 21 359 358 358 358 349 346 350 348 347 335 307 297 284 274 269 260 264
73 354 321 32 20 99 113 43 197 103 16 55 343 21 342 350 36 68 89 100 155 212 26 27 20 11 344 329 328 338 334 331 336 337 340 338 334 332 329 303 267 274 277 231
141 104 335 301 16 21 98 148 33 13 72 7 341 69 276 349 74 112 106 148 91 31 29 11 9 358 335 346 323 329 335 330 316 324 333 337 321 322 321 321 297 265 271 287
59 74 308 32 18 308 13 27 56 106 111 151 129 305 322 1 39 64 52 83 82 57 31 16 351 324 302 329 349 338 337 335 343 338 330 329 327 328 326 333 319 287 266 255
349 129 127 215 305 328 113 84 98 114 227 84 126 282 344 35 61 92 69 64 57 38 337 310 303 310 303 309 325 335 343 352 329 314 322 322 319 328 329 325 323 322 301 310
103 16 27 354 354 353 26 10 118 113 77 52 127 226 21 45 56 32 55 26 4 357 346 326 318 317 328 344 338 347 346 338 336 339 340 345 344 339 332 330 328 329 45 49
87 71 133 167 221 264 347 359 20 103 95 142 38 88 3 21 34 13 359 333 302 291 311 325 330 318 313 333 345 339 333 342 341 350 353 353 345 333 330 331 2 50 60 63
86 89 15 335 257 76 53 34 34 58 111 105 127 91 356 25 25 353 339 346 338 324 328 319 311 306 334 329 346 347 355 354 354 356 1 356 348 343 338 38 47 49 56 52
11 103 66 64 59 67 67 30 38 45 65 80 91 48 335 343 330 335 328 325 326 317 311 327 329 340 337 359 351 350 4 6 356 5 4 1 0 15 40 53 51 46 37 39
65 86 52 290 356 156 29 26 78 64 38 103 99 190 308 268 270 281 318 322 321 327 323 319 319 329 5 357 355 4 7 350 11 16 5 8 9 22 56 59 65 62 57 40
105 73 72 277 18 36 242 44 113 112 95 103 111 193 244 252 267 277 296 298 319 334 330 332 340 354 1 356 7 17 17 6 8 23 14 8 8 13 36 79 71 75 62 54
79 107 56 88 59 97 160 203 259 231 159 196 142 278 279 318 322 314 303 331 304 302 307 330 8 345 341 349 353 11 28 28 26 29 24 20 17 14 16 48 75 68 68 60
68 79 100 39 49 203 252 309 329 129 342 154 202 329 337 7 7 271 322 333 331 347 354 352 338 345 348 348 358 33 32 36 35 28 31 19 9 19 19 39 67 69 57 53
39 18 85 86 126 297 345 325 327 52 249 339 3 331 335 329 219 267 330 337 337 339 337 345 351 332 329 331 7 47 55 46 6 14 42 27 20 25 21 38 71 67 63 51
136 117 134 85 71 317 354 342 49 217 352 30 344 337 337 318 322 332 333 335 330 336 340 351 348 331 321 329 41 88 86 61 14 47 47 39 26 29 24 30 30 63 59 53
57 171 163 152 201 229 313 86 66 150 99 7 30 12 1 341 334 330 311 311 310 333 342 337 330 316 319 325 17 111 105 79 56 65 48 49 38 35 29 39 35 46 41 37
25 124 95 101 251 92 77 54 49 52 81 63 65 33 9 352 335 325 318 332 327 325 326 313 319 321 338 343 69 100 99 101 92 79 62 53 54 51 38 39 41 45 37 31
206 58 119 64 77 54 41 32 86 83 71 51 34 25 354 351 336 323 323 322 315 323 326 324 330 328 332 341 92 92 116 114 98 91 77 63 52 63 66 45 31 31 21 358
355 158 150 206 194 138 194 72 108 84 67 42 23 355 350 347 327 332 335 332 328 324 331 336 333 329 322 349 96 109 121 136 113 112 97 72 65 67 58 62 26 23 19 3